sat.trackr.live / text

‹ back to catalog

EUTELSAT HOTBIRD 13C

NORAD 33459 · 2008-065A

PAYLOAD ACTIVE UNKNOWN

§ Identity

Operator
Country
EUTE
Launch date
2008-12-20
Launch site
FRGUI
Launch vehicle
Mass (kg)
RCS (m²)
6.32

Purposes: comms

External: N2YO · Heavens-Above · Gunter

§ Orbital elements

Epoch: 2026-05-25T03:38:44.387232Z

Period
1,436.12 min
Inclination
2.8935°
Eccentricity
0.0004061
Mean motion
1.00269903 rev/d
Perigee alt
35,770.0 km
Apogee alt
35,804.2 km
Semi-major
42,165.3 km
B*
0.0000e+0
RAAN
79.4543°
Arg perigee
345.3855°
Mean anomaly
182.2866°
Rev number
4,711

§ Raw data

EUTELSAT HOTBIRD 13C1 33459U 08065A   26145.15190263 -.00000284  00000+0  00000+0 0  99912 33459   2.8935  79.4543 0004061 345.3855 182.2866  1.00269903 47115

JSON: /api/v1/satellites/33459 · /tle

For live sub-satellite position, see the globe view (requires WebGL).

§ Visibility from observer

Set your observer location to see the next 7 days of passes ≥ 10°. The values pass through the URL so the page stays shareable.

No JS? Fill the form by hand. The geolocation button needs JavaScript.